Tiempo cada hora Barrancas

Hoy, 7 Marzo, Domingo

Tiempo Temperatura Precipitaciones Viento Presión Humedad
00:00 +26°C° 1.5 mm 1 mps 738 mmHg 83%
01:00 +26°C° 1.5 mm 1 mps 738 mmHg 85%
02:00 +25°C° 2.4 mm 1 mps 738 mmHg 86%
03:00 +25°C° 2.4 mm 1 mps 737 mmHg 87%
04:00 +25°C° 2.4 mm 1 mps 737 mmHg 88%
05:00 +25°C° 2 mm 1 mps 738 mmHg 88%
06:00 +26°C° 2 mm 1 mps 739 mmHg 87%
07:00 +26°C° 2 mm 2 mps 739 mmHg 87%
08:00 +27°C° 1 mm 2 mps 740 mmHg 82%
09:00 +28°C° 1 mm 2 mps 740 mmHg 77%
10:00 +29°C° 1 mm 2 mps 741 mmHg 71%
11:00 +31°C° 0.5 mm 2 mps 740 mmHg 66%
12:00 +32°C° 0.5 mm 2 mps 739 mmHg 61%
13:00 +34°C° 0.5 mm 2 mps 738 mmHg 55%
14:00 +34°C° 0.1 mm 2 mps 737 mmHg 54%
15:00 +34°C° 0.1 mm 2 mps 737 mmHg 52%
16:00 +35°C° 0.1 mm 2 mps 736 mmHg 50%
17:00 +32°C° 0 mm 2 mps 736 mmHg 56%
18:00 +30°C° 0 mm 2 mps 737 mmHg 61%
19:00 +29°C° 0 mm 2 mps 737 mmHg 66%
20:00 +28°C° 0 mm 2 mps 737 mmHg 66%
21:00 +28°C° 0 mm 2 mps 738 mmHg 66%
22:00 +27°C° 0 mm 2 mps 738 mmHg 66%
23:00 +27°C° 0 mm 2 mps 738 mmHg 63%

Mañana, 8 Marzo, Lunes

Tiempo Temperatura Precipitaciones Viento Presión Humedad
00:00 +27°C° 0 mm 2 mps 738 mmHg 61%
01:00 +27°C° 0 mm 2 mps 737 mmHg 58%
02:00 +26°C° 0 mm 2 mps 737 mmHg 60%
03:00 +26°C° 0 mm 2 mps 737 mmHg 62%
04:00 +26°C° 0 mm 1 mps 737 mmHg 64%
05:00 +26°C° 0 mm 2 mps 738 mmHg 66%
06:00 +27°C° 0 mm 2 mps 739 mmHg 68%
07:00 +27°C° 0 mm 2 mps 739 mmHg 70%
08:00 +29°C° 0 mm 2 mps 740 mmHg 65%
09:00 +30°C° 0 mm 3 mps 740 mmHg 61%
10:00 +33°C° 0 mm 4 mps 741 mmHg 57%
11:00 +34°C° 0 mm 3 mps 740 mmHg 53%
12:00 +35°C° 0 mm 3 mps 739 mmHg 50%
13:00 +36°C° 0 mm 3 mps 738 mmHg 46%
14:00 +36°C° 0 mm 3 mps 737 mmHg 45%
15:00 +36°C° 0 mm 3 mps 737 mmHg 43%
16:00 +36°C° 0 mm 2 mps 736 mmHg 41%
17:00 +34°C° 0 mm 2 mps 736 mmHg 47%
18:00 +31°C° 0 mm 2 mps 737 mmHg 53%
19:00 +30°C° 0 mm 1 mps 737 mmHg 59%
20:00 +29°C° 0 mm 1 mps 738 mmHg 61%
21:00 +29°C° 0 mm 1 mps 738 mmHg 63%
22:00 +28°C° 0 mm 1 mps 739 mmHg 65%
23:00 +27°C° 0 mm 1 mps 738 mmHg 67%

Pasado mañana, 9 Marzo, Martes

Tiempo Temperatura Precipitaciones Viento Presión Humedad
00:00 +27°C° 0 mm 2 mps 738 mmHg 69%
01:00 +26°C° 0 mm 2 mps 738 mmHg 71%
02:00 +26°C° 0 mm 2 mps 738 mmHg 72%
03:00 +26°C° 0 mm 1 mps 738 mmHg 72%
04:00 +25°C° 0 mm 1 mps 738 mmHg 73%
05:00 +26°C° 0 mm 1 mps 738 mmHg 72%
06:00 +26°C° 0 mm 1 mps 739 mmHg 71%
07:00 +27°C° 0 mm 1 mps 739 mmHg 70%
08:00 +28°C° 0 mm 2 mps 740 mmHg 64%
09:00 +30°C° 0 mm 2 mps 740 mmHg 58%
10:00 +33°C° 0 mm 3 mps 740 mmHg 52%
11:00 +34°C° 0 mm 3 mps 739 mmHg 49%
12:00 +35°C° 0 mm 3 mps 738 mmHg 46%
13:00 +36°C° 0 mm 3 mps 738 mmHg 42%
14:00 +36°C° 0 mm 3 mps 737 mmHg 42%
15:00 +36°C° 0 mm 3 mps 736 mmHg 41%
16:00 +35°C° 0 mm 3 mps 735 mmHg 41%
17:00 +34°C° 0 mm 2 mps 736 mmHg 47%
18:00 +31°C° 0 mm 2 mps 736 mmHg 52%
19:00 +30°C° 0 mm 1 mps 737 mmHg 58%
20:00 +29°C° 0 mm 1 mps 737 mmHg 59%
21:00 +29°C° 0 mm 1 mps 738 mmHg 60%
22:00 +29°C° 0 mm 1 mps 738 mmHg 61%
23:00 +28°C° 0 mm 1 mps 738 mmHg 62%

10 Marzo, Miércoles

Tiempo Temperatura Precipitaciones Viento Presión Humedad
00:00 +28°C° 0 mm 2 mps 738 mmHg 63%
01:00 +27°C° 0 mm 2 mps 737 mmHg 64%
02:00 +27°C° 0 mm 2 mps 737 mmHg 65%
03:00 +27°C° 0 mm 1 mps 737 mmHg 66%
04:00 +27°C° 0 mm 1 mps 737 mmHg 67%
05:00 +26°C° 0 mm 1 mps 738 mmHg 68%
06:00 +26°C° 0 mm 2 mps 738 mmHg 69%
07:00 +26°C° 0 mm 2 mps 739 mmHg 70%
08:00 +27°C° 0 mm 2 mps 739 mmHg 65%
09:00 +28°C° 0 mm 2 mps 739 mmHg 60%
10:00 +29°C° 0 mm 2 mps 740 mmHg 55%
11:00 +31°C° 0 mm 2 mps 739 mmHg 48%
12:00 +34°C° 0 mm 2 mps 738 mmHg 42%
13:00 +36°C° 0 mm 2 mps 737 mmHg 35%
14:00 +35°C° 0 mm 2 mps 737 mmHg 35%
15:00 +35°C° 0 mm 2 mps 736 mmHg 35%
16:00 +34°C° 0 mm 1 mps 735 mmHg 34%
17:00 +33°C° 0 mm 1 mps 736 mmHg 39%
18:00 +31°C° 0 mm 1 mps 736 mmHg 44%
19:00 +30°C° 0 mm 1 mps 736 mmHg 48%
20:00 +29°C° 0 mm 1 mps 737 mmHg 50%
21:00 +29°C° 0 mm 1 mps 737 mmHg 52%
22:00 +28°C° 0 mm 1 mps 738 mmHg 54%
23:00 +28°C° 0 mm 1 mps 738 mmHg 55%

11 Marzo, Jueves

Tiempo Temperatura Precipitaciones Viento Presión Humedad
00:00 +28°C° 0 mm 1 mps 738 mmHg 55%
01:00 +28°C° 0 mm 1 mps 738 mmHg 55%
02:00 +27°C° 0 mm 1 mps 737 mmHg 57%
03:00 +27°C° 0 mm 1 mps 737 mmHg 60%
04:00 +26°C° 0 mm 1 mps 737 mmHg 62%
05:00 +26°C° 0 mm 2 mps 738 mmHg 62%
06:00 +26°C° 0 mm 2 mps 738 mmHg 63%
07:00 +26°C° 0 mm 2 mps 739 mmHg 63%
08:00 +27°C° 0 mm 2 mps 739 mmHg 62%
09:00 +27°C° 0 mm 2 mps 739 mmHg 61%
10:00 +28°C° 0 mm 2 mps 740 mmHg 59%
11:00 +30°C° 0 mm 2 mps 739 mmHg 53%
12:00 +32°C° 0 mm 2 mps 738 mmHg 47%
13:00 +34°C° 0 mm 1 mps 737 mmHg 41%
14:00 +34°C° 0 mm 1 mps 736 mmHg 40%
15:00 +34°C° 0 mm 1 mps 736 mmHg 38%
16:00 +34°C° 0 mm 1 mps 735 mmHg 37%
17:00 +32°C° 0 mm 1 mps 735 mmHg 42%
18:00 +31°C° 0 mm 1 mps 736 mmHg 47%
19:00 +29°C° 0 mm 1 mps 736 mmHg 51%
20:00 +29°C° 0 mm 1 mps 737 mmHg 53%
21:00 +29°C° 0 mm 1 mps 737 mmHg 54%
22:00 +28°C° 0 mm 1 mps 738 mmHg 56%
23:00 +28°C° 0 mm 1 mps 738 mmHg 55%

12 Marzo, Viernes

Tiempo Temperatura Precipitaciones Viento Presión Humedad
00:00 +28°C° 0 mm 1 mps 737 mmHg 55%
01:00 +28°C° 0 mm 1 mps 737 mmHg 54%
02:00 +28°C° 0 mm 1 mps 737 mmHg 58%
03:00 +27°C° 0 mm 1 mps 737 mmHg 62%
04:00 +27°C° 0 mm 2 mps 737 mmHg 66%
05:00 +27°C° 0.2 mm 1 mps 738 mmHg 67%
06:00 +26°C° 0.2 mm 1 mps 738 mmHg 68%
07:00 +26°C° 0.2 mm 1 mps 739 mmHg 70%
08:00 +27°C° 0.3 mm 1 mps 739 mmHg 67%
09:00 +28°C° 0.3 mm 1 mps 739 mmHg 64%
10:00 +29°C° 0.3 mm 1 mps 740 mmHg 61%
11:00 +30°C° 0.2 mm 1 mps 739 mmHg 57%
12:00 +31°C° 0.2 mm 1 mps 738 mmHg 53%
13:00 +34°C° 0.2 mm 2 mps 737 mmHg 49%
14:00 +33°C° 0 mm 1 mps 736 mmHg 47%
15:00 +33°C° 0 mm 1 mps 736 mmHg 46%
16:00 +34°C° 0 mm 1 mps 735 mmHg 44%
17:00 +32°C° 0.1 mm 1 mps 735 mmHg 49%
18:00 +31°C° 0.1 mm 1 mps 736 mmHg 53%
19:00 +29°C° 0.1 mm 1 mps 736 mmHg 58%
20:00 +29°C° 0 mm 1 mps 737 mmHg 60%
21:00 +28°C° 0 mm 1 mps 737 mmHg 61%
22:00 +27°C° 0 mm 2 mps 738 mmHg 63%
23:00 +27°C° 0.1 mm 2 mps 738 mmHg 65%
Mostrar más

Necesitamos Su Consentimiento

Meteoprog y nuestros Proveedores de Servicios pueden almacenar y acceder a sus datos personales como cookies, identificadores de dispositivo u otras tecnologías similares de su dispositivo y procesar dichos datos para personalizar contenido y anuncios, además de ofrecer funciones de redes sociales y analizar el tráfico.

  • Almacenar y/o acceder a información en su dispositivo

    Se puede almacenar o acceder a cookies, identificadores de dispositivo u otra información de su dispositivo para los fines anteriormente indicados.

  • Anuncios y contenido personalizados, medición de anuncios y contenido, percepciones del público, y desarrollo de productos

    Los anuncios y el contenido pueden personalizarse en base a su perfil. Se pueden añadir más datos para personalizar mejor los anuncios y contenidos. Se puede medir el rendimiento de los anuncios y contenidos. Se puede obtener la percepción sobre el público que ha visto los anuncios y contenidos. Dichos datos pueden usarse para desarrollar o mejorar la experiencia del usuario, sistemas y software.

Al hacer clic en ‘Estoy De Acuerdo’ usted permitirá el uso de las cookies, identificadores de dispositivo, balizas web u otras tecnologías similares indicadas. Su configuración puede cambiarse desde el navegador de su dispositivo.

Para ciertos fines, los intereses legítimos pueden ser considerados por encima del consentimiento. Puede leer más sobre ello en nuestra Política de Privacidad y Cookies.